DW5678 Kavala GR current weather conditions

sailwx.info

Wind from 180

Air temperature 25.6° C
Dewpoint 21.8° C

Last reported at 2014-Aug-21 18:45 UTC.
Time now 2014-Aug-21 20:01 UTC

Location: N 40°56' E 024°24'.
View on Google Maps.

See reports from other nearby stations

  
Tides and Currents Weather Stations Pressure Air Temp Water Temp Dewpoint Dewpoint Depression Visibility Wind Speed Wind Dir Waves Ship Positions
date/time (UTC)wind fromknots sea level pressurealtimeterstation pressurevisibilityair tempwater tempwave heightnotes
2014-Aug-21 18:45 180 25.6
2014-Aug-21 18:30 180 25.6
2014-Aug-21 18:15 193 26.1
2014-Aug-21 18:00 193 26.1
2014-Aug-21 17:45 193 26.1
2014-Aug-21 17:30 193 0 gusting 2 26.1
2014-Aug-21 17:15 207 26.1
2014-Aug-21 17:00 219 26.7
2014-Aug-21 16:45 214 26.7
2014-Aug-21 16:30 228 0 gusting 2 26.7
2014-Aug-21 16:15 233 1 gusting 6 26.7
2014-Aug-21 16:00 191 1 gusting 6 27.2
2014-Aug-21 15:45 221 1 gusting 5 27.2
2014-Aug-21 15:30 236 2 gusting 6 27.8
2014-Aug-21 15:15 229 0 gusting 2 27.2
2014-Aug-21 15:00 153 27.2
2014-Aug-21 14:45 216 0 gusting 4 27.2
2014-Aug-21 14:30 216 1 gusting 2 27.2
2014-Aug-21 14:15 195 0 gusting 4 27.8
2014-Aug-21 14:00 210 1 gusting 5 28.3
2014-Aug-21 13:45 213 2 gusting 6 27.8
2014-Aug-21 13:30 220 2 gusting 6 28.3
2014-Aug-21 13:15 225 1 gusting 6 28.3
2014-Aug-21 13:00 217 2 gusting 7 28.3
2014-Aug-21 12:45 245 1 gusting 5 28.3
2014-Aug-21 12:30 203 1 gusting 5 28.3
2014-Aug-21 12:15 144 0 gusting 6 28.3
2014-Aug-21 12:00 176 1 gusting 6 28.3
2014-Aug-21 11:45 186 1 gusting 5 28.3
2014-Aug-21 11:30 198 1 gusting 6 28.3
2014-Aug-21 11:15 209 1 gusting 6 28.3
2014-Aug-21 11:01 220 1 gusting 6 27.8
2014-Aug-21 10:45 198 1 gusting 6 27.8
2014-Aug-21 10:30 151 1 gusting 5 27.8
2014-Aug-21 10:15 199 2 gusting 5 27.8
2014-Aug-21 10:00 140 2 gusting 6 26.7
2014-Aug-21 09:45 179 0 gusting 5 27.2
2014-Aug-21 09:30 249 2 gusting 4 26.7
2014-Aug-21 09:15 126 0 gusting 6 26.7
2014-Aug-21 09:00 141 1 gusting 5 26.1
2014-Aug-21 08:45 175 0 gusting 5 25.6
2014-Aug-21 08:30 221 1 gusting 5 26.1
2014-Aug-21 08:15 128 1 gusting 4 26.1
2014-Aug-21 08:00 135 0 gusting 5 26.1
2014-Aug-21 07:45 178 0 gusting 4 26.1
2014-Aug-21 07:30 217 1 gusting 4 25.6
2014-Aug-21 07:15 225 0 gusting 2 25.6
2014-Aug-21 07:00 152 0 gusting 2 25.6
2014-Aug-21 06:45 178 25.6
2014-Aug-21 06:30 156 25.0
2014-Aug-21 06:15 155 24.4
2014-Aug-21 06:00 136 0 gusting 2 24.4
2014-Aug-21 05:45 076 24.4
2014-Aug-21 05:30 091 23.9
2014-Aug-21 05:15 005 23.3
2014-Aug-21 05:00 356 0 gusting 2 23.3
2014-Aug-21 04:45 266 22.8
2014-Aug-21 04:30 266 22.8
2014-Aug-21 04:15 266 22.8
2014-Aug-21 04:00 266 22.8
2014-Aug-21 03:45 266 22.8
2014-Aug-21 03:30 266 22.8
2014-Aug-21 03:15 266 22.8
2014-Aug-21 03:01 266 22.8
2014-Aug-21 02:45 266 22.8
2014-Aug-21 02:30 266 22.8
2014-Aug-21 02:15 266 22.8
2014-Aug-21 02:00 266 22.8
2014-Aug-21 01:45 266 22.8
2014-Aug-21 01:30 266 23.3
2014-Aug-21 01:15 266 22.8
2014-Aug-21 01:00 266 22.8
2014-Aug-21 00:45 262 22.8
2014-Aug-21 00:30 269 23.3
2014-Aug-21 00:15 286 22.8
2014-Aug-21 00:00 286 22.8
2014-Aug-20 23:45 259 0 gusting 2 22.8
2014-Aug-20 23:30 255 23.3
2014-Aug-20 23:15 247 23.3
2014-Aug-20 23:00 243 0 gusting 2 23.9
2014-Aug-20 22:45 240 23.9
2014-Aug-20 22:30 240 23.9
2014-Aug-20 22:15 240 23.9
2014-Aug-20 22:00 240 23.9
2014-Aug-20 21:45 240 23.9
2014-Aug-20 21:30 240 23.9
2014-Aug-20 21:15 240 23.9
2014-Aug-20 21:00 240 23.9
2014-Aug-20 20:45 240 24.4
2014-Aug-20 20:30 240 24.4
2014-Aug-20 20:15 240 24.4
2014-Aug-20 20:00 240 24.4
2014-Aug-20 19:45 240 24.4
2014-Aug-20 19:30 240 25.0
2014-Aug-20 19:15 240 25.0
2014-Aug-20 19:01 240 25.0
2014-Aug-20 18:45 240 25.0
2014-Aug-20 18:30 240 25.0
2014-Aug-20 18:15 213 0 gusting 4 25.0
2014-Aug-20 18:00 243 0 gusting 2 25.0
2014-Aug-20 17:45 223 0 gusting 2 25.6
2014-Aug-20 17:30 217 0 gusting 2 25.6
2014-Aug-20 17:15 234 0 gusting 2 25.6
2014-Aug-20 17:00 215 25.6
2014-Aug-20 16:45 227 26.1
2014-Aug-20 16:30 225 0 gusting 4 26.1
2014-Aug-20 16:15 222 1 gusting 4 26.1
2014-Aug-20 16:00 217 26.7
2014-Aug-20 15:45 210 0 gusting 4 26.7
2014-Aug-20 15:30 217 0 gusting 4 26.7
2014-Aug-20 15:15 195 0 gusting 4 26.7
2014-Aug-20 15:01 142 0 gusting 5 27.2
2014-Aug-20 14:45 227 1 gusting 5 27.2
2014-Aug-20 14:30 213 27.2
2014-Aug-20 14:15 121 1 gusting 5 27.2
2014-Aug-20 14:00 169 1 gusting 5 27.2
2014-Aug-20 13:45 164 0 gusting 5 27.2
2014-Aug-20 13:30 189 1 gusting 4 27.2
2014-Aug-20 13:15 204 1 gusting 5 27.2
2014-Aug-20 13:00 229 0 gusting 6 27.2
2014-Aug-20 12:45 187 1 gusting 6 26.7
2014-Aug-20 12:30 237 0 gusting 4 27.8
2014-Aug-20 12:15 186 1 gusting 6 27.8
2014-Aug-20 12:00 191 0 gusting 5 27.2
2014-Aug-20 11:45 225 2 gusting 6 27.8
2014-Aug-20 11:30 208 1 gusting 6 27.2
2014-Aug-20 11:15 202 2 gusting 6 27.2
2014-Aug-20 11:00 229 2 gusting 6 26.7
2014-Aug-20 10:45 174 0 gusting 6 27.8
2014-Aug-20 10:30 195 1 gusting 5 27.2
2014-Aug-20 10:15 163 0 gusting 4 27.2
2014-Aug-20 10:00 149 1 gusting 6 26.7
2014-Aug-20 09:45 220 1 gusting 5 26.7
2014-Aug-20 09:30 197 1 gusting 6 26.1
2014-Aug-20 09:15 207 2 gusting 5 26.1
2014-Aug-20 09:01 214 0 gusting 4 25.6
2014-Aug-20 08:45 201 1 gusting 5 25.0
2014-Aug-20 08:30 132 1 gusting 4 25.0
2014-Aug-20 08:15 171 1 gusting 4 25.0
2014-Aug-20 08:01 158 0 gusting 5 25.0
2014-Aug-20 07:45 153 1 gusting 5 24.4
2014-Aug-20 07:30 139 1 gusting 4 25.0
2014-Aug-20 07:15 158 0 gusting 2 24.4
2014-Aug-20 07:00 121 1 gusting 4 24.4
2014-Aug-20 06:45 158 1 gusting 4 24.4
2014-Aug-20 06:30 174 0 gusting 2 25.0
2014-Aug-20 06:15 159 0 gusting 2 24.4
2014-Aug-20 06:00 155 0 gusting 2 23.9
2014-Aug-20 05:45 158 23.9
2014-Aug-20 05:30 279 0 gusting 2 23.3
2014-Aug-20 05:15 020 23.3
2014-Aug-20 05:00 021 22.8
2014-Aug-20 04:45 021 22.8
2014-Aug-20 04:30 021 22.8
2014-Aug-20 04:15 021 22.8
2014-Aug-20 04:00 021 22.2
2014-Aug-20 03:45 022 22.2
2014-Aug-20 03:30 028 22.2
2014-Aug-20 03:15 030 22.2
2014-Aug-20 03:00 036 22.8
2014-Aug-20 02:45 042 0 gusting 4 22.8
2014-Aug-20 02:30 329 0 gusting 2 22.8
2014-Aug-20 02:15 045 1 gusting 4 22.8
2014-Aug-20 02:01 038 1 gusting 5 22.2
2014-Aug-20 01:45 036 1 gusting 2 22.2
2014-Aug-20 01:30 024 22.2
2014-Aug-20 01:15 024 22.2
2014-Aug-20 01:01 024 22.8
2014-Aug-20 00:45 088 1 gusting 5 22.8
2014-Aug-20 00:30 285 22.8
2014-Aug-20 00:15 285 22.8
2014-Aug-20 00:00 285 22.8
2014-Aug-19 23:45 285 22.8
2014-Aug-19 23:30 285 0 gusting 2 22.8
2014-Aug-19 23:15 030 23.3
2014-Aug-19 23:00 076 23.3
2014-Aug-19 22:45 269 23.9
2014-Aug-19 22:30 269 23.9
2014-Aug-19 22:15 269 23.9
2014-Aug-19 22:01 269 23.9
2014-Aug-19 21:45 269 23.9
2014-Aug-19 21:30 269 23.9
2014-Aug-19 21:15 269 23.9
2014-Aug-19 21:00 269 23.9
2014-Aug-19 20:45 268 24.4
2014-Aug-19 20:30 269 24.4
2014-Aug-19 20:15 269 24.4
2014-Aug-19 20:00 269 24.4